Darwin, CA

10:39 AM PST on February 13, 2016 (GMT -0800)
China Lake NAWS

Weather History for KNID - August, 2013

Change the Weather History Date:

Monday, August 26, 2013

  Actual Average Record
Temperature  
Mean Temperature 82 °F -  
Max Temperature 96 °F 97 °F 108 °F (2011)
Min Temperature 68 °F 69 °F 59 °F (2002)
Cooling Degree Days 17    
Growing Degree Days 32 (Base 50)    
Moisture  
Dew Point 58 °F    
Average Humidity 44    
Maximum Humidity 58    
Minimum Humidity 28    
Precipitation  
Precipitation 0.00 in - - ()
Sea Level Pressure  
Sea Level Pressure 29.92 in    
Wind  
Wind Speed 6 mph (SE)    
Max Wind Speed 16 mph    
Max Gust Speed 23 mph    
Visibility 10 miles    
Events      
Averages and records for this station are not official NWS values.
T = Trace of Precipitation, MM = Missing Value Source: NWS Daily Summary

Daily Weather History Graph

Daily Weather History Graph

Search for Another Location

Airport or City:

Trip Planner

Search our weather history database for the weather conditions in past years. The results will help you decide how hot, cold, wet, or windy it might be!

Date:

Astronomy

Aug. 26, 2013 Rise Set
Actual Time 6:18 AM PDT 7:25 PM PDT
Civil Twilight 5:52 AM PDT 7:52 PM PDT
Nautical Twilight 5:20 AM PDT 8:23 PM PDT
Astronomical Twilight 4:48 AM PDT 8:55 PM PDT
Moon 10:54 PM PDT (8/26) 12:10 PM PDT (8/26)
Length of Visible Light 14h 00m
Length of Day
13h 07m
Waning Gibbous, 65% of the Moon is Illuminated
Aug 26
Waning Gibbous
Aug 28
Last Quarter
Sep 5
New
Sep 12
First Quarter
Sep 19
Full

Hourly Weather History & Observations

Time (PDT) Temp. Heat Index Dew Point Humidity Pressure Visibility Wind Dir Wind Speed Gust Speed Precip Events Conditions
12:56 AM 78.1 °F - 60.1 °F 54% 29.92 in 10.0 mi SSE 5.8 mph - N/A   Clear
1:56 AM 75.9 °F - 59.0 °F 56% 29.92 in 10.0 mi SSW 5.8 mph - N/A   Clear
2:56 AM 73.9 °F - 55.9 °F 53% 29.93 in 10.0 mi Calm Calm - N/A   Clear
3:56 AM 71.1 °F - 52.0 °F 51% 29.94 in 10.0 mi SSW 6.9 mph - N/A   Clear
4:56 AM 71.1 °F - 51.1 °F 49% 29.94 in 10.0 mi SSW 9.2 mph - N/A   Clear
5:56 AM 68.0 °F - 48.9 °F 50% 29.95 in 10.0 mi SSW 6.9 mph - N/A   Partly Cloudy
6:56 AM 69.1 °F - 54.0 °F 58% 29.97 in 10.0 mi SSW 4.6 mph - N/A   Partly Cloudy
7:56 AM 77.0 °F - 61.0 °F 58% 29.99 in 10.0 mi Calm Calm - N/A   Partly Cloudy
8:56 AM 82.0 °F 83.0 °F 62.1 °F 51% 29.98 in 10.0 mi Calm Calm - N/A   Partly Cloudy
9:56 AM 86.0 °F 85.4 °F 59.0 °F 40% 29.98 in 10.0 mi NE 4.6 mph - N/A   Scattered Clouds
10:56 AM 86.0 °F 86.1 °F 61.0 °F 43% 29.97 in 10.0 mi Calm Calm - N/A   Scattered Clouds
11:56 AM 90.0 °F 90.3 °F 62.1 °F 39% 29.94 in 10.0 mi Variable 5.8 mph - N/A   Scattered Clouds
12:56 PM 91.9 °F 91.2 °F 59.0 °F 33% 29.92 in 10.0 mi Variable 5.8 mph - N/A   Mostly Cloudy
1:56 PM 93.0 °F 92.0 °F 57.9 °F 31% 29.90 in 10.0 mi East 13.8 mph 19.6 mph N/A   Mostly Cloudy
2:56 PM 93.9 °F 93.2 °F 59.0 °F 31% 29.87 in 10.0 mi East 12.7 mph 20.7 mph N/A   Mostly Cloudy
3:56 PM 96.1 °F 95.2 °F 57.9 °F 28% 29.86 in 10.0 mi East 15.0 mph 23.0 mph N/A   Mostly Cloudy
4:56 PM 93.9 °F 92.9 °F 57.9 °F 30% 29.86 in 10.0 mi East 16.1 mph 20.7 mph N/A   Mostly Cloudy
5:56 PM 91.0 °F 90.2 °F 59.0 °F 34% 29.86 in 10.0 mi ESE 16.1 mph 21.9 mph N/A   Mostly Cloudy
6:56 PM 88.0 °F 87.6 °F 60.1 °F 39% 29.86 in 10.0 mi ESE 11.5 mph - N/A   Scattered Clouds
7:56 PM 84.9 °F 84.4 °F 59.0 °F 41% 29.87 in 10.0 mi SE 9.2 mph - N/A   Scattered Clouds
8:56 PM 84.0 °F 83.5 °F 57.9 °F 41% 29.89 in 10.0 mi ESE 10.4 mph - N/A   Clear
9:56 PM 79.0 °F - 59.0 °F 50% 29.90 in 10.0 mi ESE 8.1 mph - N/A   Clear
10:56 PM 81.0 °F 81.6 °F 60.1 °F 49% 29.91 in 10.0 mi South 3.5 mph - N/A   Mostly Cloudy
11:56 PM 81.0 °F 81.3 °F 59.0 °F 47% 29.90 in 10.0 mi Calm Calm - N/A   Scattered Clouds